THORAD AGENA D DEB, 4650

Orbit data source: Space-Track

THORAD AGENA D DEB, 4650 is space debris in SSO originally from a launch on Wed, 08 Apr 1970 UTC launched from the Air Force Western Test Range (AFWTR). Debris objects in space refer to the collection of defunct objects orbiting the Earth. Examples of debris include non-operational satellites, rocket bodies, and fragments generated from explosions, collisions, or faulty payload assembly.

Loading next visibility...
Identifier
4650, 1970-025AJ
Orbit
SSO
Country
Flag of USUS
Related business
Manufacturer
Unknown
Mission
Spacecraft
Bus & Motor
Unknown
Mass
Unknown
Launch date (UTC)
1970-04-08 (56 years ago)
Launch vehicle
Unknown
Launch site
Air Force Western Test Range (AFWTR)
Object type
Payload
Rocket body
Debris
Shape & HBR
Unknown shape, 0.2 m
Radar Cross Section
Small (<0.1 m²)

Expand to show TLE details & history
Last TLE update: 10 hours ago

TLE from 10 hours ago
0 THORAD AGENA D DEB
1 04650U 70025AJ  26127.28447431  .00001014  00000-0  55786-3 0  9990
2 04650  99.8392 250.9661 0114539 204.1811 155.3956 14.11009262851921
Epoch: 2026-05-07T06:49Z
TLE epoch observation values (Epoch: 2026-05-07T06:49:38.580Z)
Latitude
0.00006°
Longitude
-76.57748°
Altitude
934.296 km
Speed
7.346 km/s
True Right ascension
16h 43m 51s
True Declination
0° 00' 00"
Sunlit
Object was in full shadow at epoch
Visualization orbit readout
Latitude
Unknown
Longitude
Unknown
Altitude
Unknown
Speed
Unknown
Apparent Right ascension
Unknown
Apparent Declination
Unknown
Sunlit
N/A
Visualization observer readout
Local Sidereal Time
00:24:15
Azimuth
Unknown
Elevation
Unknown
Doppler factor
Unknown
Orbital elements
Apogee altitude
935.974 km
Perigee altitude
770.321 km
Semi-major axis
7,231.284 km
Eccentricity
0.01145
Inclination
99.8392°
RAAN
250.9661°
Arg. of periapsis
204.1811°
True anomaly
155.93503°
Mean anomaly
155.3956°
Eccentric anomaly
155.66602°
Mean motion
3.52956 °/min
Orbital period
102 mins
BSTAR
0.00055786

Documentation

Showing up to 5 results
|